User: anonymous
Location: Unspecified
(0.0000°N, 0.0000°E)
Time: 08:06:37
(UTC+00:00)
Language:

TECSAR - Orbit

View from above orbital plane
View from above orbital plane
View from above satellite
View from above satellite

Ground track
Ground track

The orbit data is extracted from the following two-line orbital elements,

1 32476U 08002A   14001.93155943 0.00107000  00000-0  22972-2 0    02
2 32476  41.3507 283.8482 0010256  77.8921 282.1073 15.43763782    06
Epoch (UTC): 01 January 2014 22:21:26
Eccentricity: 0.0010256
inclination: 41.3507°
perigee height: 428 km
apogee height: 442 km
right ascension of ascending node: 283.8482°
argument of perigee: 77.8921°
revolutions per day: 15.43763782
mean anomaly at epoch: 282.1073°
orbit number at epoch: 0

The dashed part of the orbit path shows where the satellite is in the earth's shadow,  

DLR